Simultaneous Nadir Overpasses (SNOs) Predictions

Prediction of SNOs between NOAA-20 and AQUA Satellite Orbit:

Table of predicted SNOs for the next 14.0 days since TLE Epoch: 8/9/2025
Index Date (NOAA-20) Time (NOAA-20) Lat,Lon (NOAA-20) SZA (NOAA-20 ) Date (AQUA) Time (AQUA) Lat,Lon (AQUA) SZA (AQUA ) Distance(km) Time Diff (sec)
1 08/09/2025 18:59:14 -81.28, 10.33 108.97 08/09/2025 18:59:30 -81.28, 10.20 108.97 2.38 16
2 08/09/2025 19:49:59 81.28, 177.66 71.04 08/09/2025 19:48:48 81.27, 177.77 71.06 2.15 71
3 08/12/2025 04:30:09 -81.28,-132.25 108.31 08/12/2025 04:30:18 -81.28,-132.43 108.29 3.18 9
4 08/14/2025 14:01:04 -81.28, 85.15 107.62 08/14/2025 14:01:05 -81.28, 85.09 107.61 1.25 1
5 08/16/2025 23:31:59 -81.28, -57.47 106.90 08/16/2025 23:31:52 -81.28, -57.63 106.87 2.69 7
6 08/19/2025 08:12:10 81.28, -7.91 73.90 08/19/2025 08:13:20 81.28, -7.91 73.86 0.17 70
7 08/19/2025 09:02:54 -81.28, 159.88 106.16 08/19/2025 09:02:38 -81.28, 159.80 106.14 1.47 16
8 08/21/2025 17:43:05 81.28,-150.62 74.66 08/21/2025 17:44:06 81.27,-150.73 74.64 2.28 61



Historial Predications of SNOs between NOAA-20 and AQUA
